When you browse on this site, cookies collect data to enhance your experience and personalize the content and advertising you see.
Visit our Privacy Policy to learn more. By continuing to use the site, you agree to this use of cookies and data.
  • Em Portugal
  • Lista de países
  • Para 7 dias
  • Temperatura da água
  • Mapas de satélite
  • Mapa do tempo
  • Widgets de tempo
  • user-avatar
    Iniciar Sessão

    Previsão horária em Nachiczewan

    Hoje, 22 Maio, Quarta-feira

    Tempo Temperatura Precipitação Vento Pressão Humidade
    00:00 +21°C° 0 mm 1 m/s 691 mmHg 47%
    01:00 +20°C° 0 mm 1 m/s 690 mmHg 49%
    02:00 +20°C° 0 mm 1 m/s 690 mmHg 50%
    03:00 +19°C° 0 mm 1 m/s 690 mmHg 52%
    04:00 +19°C° 0 mm 1 m/s 690 mmHg 51%
    05:00 +19°C° 0 mm 1 m/s 690 mmHg 50%
    06:00 +17°C° 0 mm 0 m/s 690 mmHg 49%
    07:00 +20°C° 0 mm 1 m/s 690 mmHg 46%
    08:00 +21°C° 0 mm 1 m/s 690 mmHg 43%
    09:00 +23°C° 0 mm 1 m/s 690 mmHg 39%
    10:00 +24°C° 0 mm 1 m/s 689 mmHg 36%
    11:00 +25°C° 0 mm 1 m/s 689 mmHg 33%
    12:00 +26°C° 0 mm 1 m/s 689 mmHg 30%
    13:00 +27°C° 0.1 mm 1 m/s 689 mmHg 29%
    14:00 +28°C° 0.1 mm 1 m/s 688 mmHg 27%
    15:00 +28°C° 0.1 mm 1 m/s 688 mmHg 26%
    16:00 +28°C° 0.8 mm 2 m/s 688 mmHg 28%
    17:00 +27°C° 0.8 mm 2 m/s 688 mmHg 31%
    18:00 +27°C° 0.8 mm 2 m/s 688 mmHg 34%
    19:00 +26°C° 0.5 mm 2 m/s 688 mmHg 36%
    20:00 +25°C° 0.5 mm 1 m/s 688 mmHg 39%
    21:00 +24°C° 0.5 mm 1 m/s 689 mmHg 42%
    22:00 +24°C° 0.1 mm 1 m/s 688 mmHg 44%
    23:00 +23°C° 0.1 mm 1 m/s 688 mmHg 45%

    Amanhã, 23 Maio, Quinta-feira

    Tempo Temperatura Precipitação Vento Pressão Humidade
    00:00 +22°C° 0.1 mm 1 m/s 688 mmHg 47%
    01:00 +22°C° 0 mm 1 m/s 688 mmHg 48%
    02:00 +21°C° 0 mm 1 m/s 688 mmHg 50%
    03:00 +21°C° 0 mm 1 m/s 688 mmHg 52%
    04:00 +21°C° 0 mm 1 m/s 688 mmHg 51%
    05:00 +21°C° 0 mm 1 m/s 688 mmHg 50%
    06:00 +19°C° 0 mm 0 m/s 688 mmHg 50%
    07:00 +22°C° 0 mm 1 m/s 688 mmHg 46%
    08:00 +23°C° 0 mm 1 m/s 687 mmHg 43%
    09:00 +24°C° 0 mm 1 m/s 687 mmHg 40%
    10:00 +26°C° 0 mm 1 m/s 687 mmHg 36%
    11:00 +27°C° 0 mm 1 m/s 687 mmHg 32%
    12:00 +28°C° 0 mm 1 m/s 687 mmHg 29%
    13:00 +29°C° 0 mm 2 m/s 686 mmHg 28%
    14:00 +29°C° 0 mm 2 m/s 686 mmHg 27%
    15:00 +30°C° 0 mm 3 m/s 686 mmHg 26%
    16:00 +29°C° 0.1 mm 3 m/s 686 mmHg 27%
    17:00 +29°C° 0.1 mm 4 m/s 686 mmHg 29%
    18:00 +28°C° 0.1 mm 4 m/s 686 mmHg 30%
    19:00 +27°C° 0.4 mm 3 m/s 686 mmHg 34%
    20:00 +26°C° 0.4 mm 2 m/s 687 mmHg 38%
    21:00 +25°C° 0.4 mm 1 m/s 687 mmHg 43%
    22:00 +24°C° 0.1 mm 1 m/s 687 mmHg 44%
    23:00 +24°C° 0.1 mm 1 m/s 687 mmHg 46%

    Depois de amanhã, 24 Maio, Sexta-feira

    Tempo Temperatura Precipitação Vento Pressão Humidade
    00:00 +23°C° 0.1 mm 1 m/s 688 mmHg 47%
    01:00 +23°C° 0 mm 1 m/s 687 mmHg 49%
    02:00 +22°C° 0 mm 1 m/s 687 mmHg 50%
    03:00 +22°C° 0 mm 1 m/s 687 mmHg 51%
    04:00 +22°C° 0 mm 1 m/s 688 mmHg 50%
    05:00 +22°C° 0 mm 1 m/s 688 mmHg 49%
    06:00 +22°C° 0 mm 1 m/s 688 mmHg 48%
    07:00 +23°C° 0 mm 1 m/s 688 mmHg 46%
    08:00 +24°C° 0 mm 1 m/s 688 mmHg 44%
    09:00 +25°C° 0 mm 1 m/s 688 mmHg 41%
    10:00 +26°C° 0 mm 2 m/s 688 mmHg 39%
    11:00 +27°C° 0 mm 2 m/s 688 mmHg 36%
    12:00 +28°C° 0 mm 2 m/s 688 mmHg 34%
    13:00 +29°C° 0.1 mm 2 m/s 687 mmHg 32%
    14:00 +30°C° 0.1 mm 2 m/s 687 mmHg 30%
    15:00 +31°C° 0.1 mm 2 m/s 687 mmHg 29%
    16:00 +30°C° 0.5 mm 2 m/s 687 mmHg 30%
    17:00 +30°C° 0.5 mm 2 m/s 687 mmHg 31%
    18:00 +29°C° 0.5 mm 3 m/s 688 mmHg 32%
    19:00 +28°C° 0.4 mm 2 m/s 688 mmHg 36%
    20:00 +27°C° 0.4 mm 2 m/s 689 mmHg 40%
    21:00 +26°C° 0.4 mm 2 m/s 689 mmHg 44%
    22:00 +25°C° 0.4 mm 2 m/s 689 mmHg 46%
    23:00 +25°C° 0.4 mm 2 m/s 689 mmHg 48%

    25 Maio, Sábado

    Tempo Temperatura Precipitação Vento Pressão Humidade
    00:00 +24°C° 0.4 mm 1 m/s 689 mmHg 50%
    01:00 +24°C° 0.1 mm 1 m/s 689 mmHg 51%
    02:00 +23°C° 0.1 mm 1 m/s 689 mmHg 51%
    03:00 +23°C° 0.1 mm 1 m/s 689 mmHg 51%
    04:00 +23°C° 0 mm 1 m/s 689 mmHg 49%
    05:00 +24°C° 0 mm 1 m/s 689 mmHg 46%
    06:00 +24°C° 0 mm 1 m/s 689 mmHg 44%
    07:00 +26°C° 0 mm 1 m/s 689 mmHg 40%
    08:00 +27°C° 0 mm 2 m/s 690 mmHg 35%
    09:00 +28°C° 0 mm 2 m/s 690 mmHg 31%
    10:00 +30°C° 0 mm 2 m/s 690 mmHg 27%
    11:00 +33°C° 0 mm 3 m/s 689 mmHg 24%
    12:00 +35°C° 0 mm 3 m/s 689 mmHg 20%
    13:00 +35°C° 0 mm 3 m/s 689 mmHg 18%
    14:00 +36°C° 0 mm 3 m/s 688 mmHg 15%
    15:00 +37°C° 0 mm 3 m/s 688 mmHg 13%
    16:00 +37°C° 0.1 mm 3 m/s 688 mmHg 14%
    17:00 +37°C° 0.1 mm 2 m/s 688 mmHg 16%
    18:00 +36°C° 0.1 mm 2 m/s 688 mmHg 17%
    19:00 +34°C° 0.6 mm 3 m/s 689 mmHg 23%
    20:00 +30°C° 0.6 mm 3 m/s 689 mmHg 29%
    21:00 +28°C° 0.6 mm 4 m/s 689 mmHg 35%
    22:00 +27°C° 0.4 mm 3 m/s 689 mmHg 36%
    23:00 +27°C° 0.4 mm 3 m/s 688 mmHg 37%

    26 Maio, Domingo

    Tempo Temperatura Precipitação Vento Pressão Humidade
    00:00 +26°C° 0.4 mm 2 m/s 688 mmHg 37%
    01:00 +26°C° 0 mm 2 m/s 687 mmHg 38%
    02:00 +25°C° 0 mm 2 m/s 687 mmHg 39%
    03:00 +25°C° 0 mm 1 m/s 686 mmHg 40%
    04:00 +25°C° 0 mm 1 m/s 686 mmHg 39%
    05:00 +26°C° 0 mm 1 m/s 687 mmHg 39%
    06:00 +26°C° 0 mm 1 m/s 687 mmHg 38%
    07:00 +27°C° 0 mm 1 m/s 687 mmHg 34%
    08:00 +29°C° 0 mm 2 m/s 687 mmHg 30%
    09:00 +30°C° 0 mm 2 m/s 687 mmHg 25%
    10:00 +33°C° 0 mm 3 m/s 686 mmHg 22%
    11:00 +35°C° 0 mm 3 m/s 686 mmHg 19%
    12:00 +36°C° 0 mm 4 m/s 686 mmHg 16%
    13:00 +36°C° 0 mm 3 m/s 686 mmHg 15%
    14:00 +36°C° 0 mm 3 m/s 685 mmHg 15%
    15:00 +37°C° 0 mm 2 m/s 685 mmHg 14%
    16:00 +36°C° 0.1 mm 3 m/s 685 mmHg 14%
    17:00 +36°C° 0.1 mm 4 m/s 686 mmHg 14%
    18:00 +35°C° 0.1 mm 6 m/s 686 mmHg 14%
    19:00 +33°C° 0 mm 4 m/s 686 mmHg 16%
    20:00 +30°C° 0 mm 3 m/s 687 mmHg 18%
    21:00 +27°C° 0 mm 1 m/s 687 mmHg 20%
    22:00 +27°C° 0 mm 2 m/s 687 mmHg 23%
    23:00 +26°C° 0 mm 2 m/s 687 mmHg 26%

    27 Maio, Segunda-feira

    Tempo Temperatura Precipitação Vento Pressão Humidade
    00:00 +25°C° 0 mm 2 m/s 687 mmHg 29%
    01:00 +24°C° 0 mm 2 m/s 687 mmHg 32%
    02:00 +23°C° 0 mm 2 m/s 687 mmHg 36%
    03:00 +22°C° 0 mm 1 m/s 687 mmHg 40%
    04:00 +23°C° 0 mm 1 m/s 688 mmHg 41%
    05:00 +23°C° 0 mm 1 m/s 688 mmHg 41%
    06:00 +23°C° 0 mm 1 m/s 689 mmHg 42%
    07:00 +24°C° 0 mm 1 m/s 689 mmHg 38%
    08:00 +25°C° 0 mm 1 m/s 689 mmHg 34%
    09:00 +27°C° 0 mm 1 m/s 689 mmHg 30%
    10:00 +28°C° 0 mm 1 m/s 689 mmHg 26%
    11:00 +29°C° 0 mm 1 m/s 689 mmHg 23%
    12:00 +30°C° 0 mm 1 m/s 689 mmHg 19%
    13:00 +31°C° 0 mm 2 m/s 689 mmHg 17%
    14:00 +32°C° 0 mm 2 m/s 688 mmHg 16%
    15:00 +34°C° 0 mm 2 m/s 688 mmHg 15%
    16:00 +33°C° 0 mm 3 m/s 688 mmHg 16%
    17:00 +33°C° 0 mm 3 m/s 688 mmHg 16%
    18:00 +33°C° 0 mm 3 m/s 688 mmHg 17%
    19:00 +31°C° 0 mm 3 m/s 689 mmHg 21%
    20:00 +29°C° 0 mm 2 m/s 689 mmHg 26%
    21:00 +28°C° 0 mm 2 m/s 690 mmHg 30%
    22:00 +27°C° 0 mm 2 m/s 689 mmHg 34%
    23:00 +26°C° 0 mm 2 m/s 689 mmHg 38%
    Mostrar mais